Regional Weather Roundup
Issued by NWS Nashville, TN

Home | Current Version | Previous Version | Text Only | Print | Product List | Glossary On
Versions: 1 2 3 4 5 6 7 8 9 10 11 12 13 14 15 16 17 18 19 20 21 22 23 24 25 26 27 28 29 30 31 32 33 34 35 36 37 38 39 40 41 42 43 44 45 46 47 48 49 50
000
ASUS44 KOHX 220915
RWROHX
MIDDLE TENNESSEE HOURLY WEATHER ROUNDUP
NATIONAL WEATHER SERVICE NASHVILLE TN
300 AM CST MON DEC 22 2014

NOTE: "FAIR" INDICATES FEW OR NO CLOUDS BELOW 12,000 FEET WITH
NO SIGNIFICANT WEATHER AND/OR OBSTRUCTIONS TO VISIBILITY.

* THESE REPORTS ARE NOT UNDER NWS QUALITY CONTROL AND MAY NOT
  REPORT WEATHER SUCH AS PRECIPITATION AND FOG.


TNZ005>011-023>034-057-059-062>066-078-080-221000
...NORTHERN MIDDLE TENNESSEE...

CITY           SKY/WX    TMP DP  RH WIND       PRES   REMARKS
CLARKSVILLE    CLOUDY    42  38  85 SE7       29.94F
CROSSVILLE     CLOUDY    45  38  76 S6        30.01F
GALLATIN       CLOUDY    45  43  93 CALM      29.99F
DICKSON          N/A     45  43  93 S5        29.94F
LEBANON        CLOUDY    48  43  83 SE8       29.97S
LIVINGSTON     CLOUDY    45  40  82 S6        29.99F
NASHVILLE      CLOUDY    46  43  89 SE5       29.98F
WEST NASHVILLE CLOUDY    41  41 100 CALM      29.97F
PORTLAND       MOCLDY    43  39  87 S5        29.95F
SMYRNA         CLOUDY    45  43  93 CALM      29.99F
SPARTA         CLOUDY    46  43  87 CALM      29.99S
$$
TNZ056-058-060-061-075>077-079-093>097-221000
...SOUTHERN MIDDLE TENNESSEE...

CITY           SKY/WX    TMP DP  RH WIND       PRES   REMARKS
COLUMBIA       CLOUDY   N/A N/A N/A SE6       29.94S
LEWISBURG      CLOUDY    49  45  86 S6        29.97S
MCMINNVILLE    CLOUDY    48  45  87 CALM      29.98F
MURFREESBORO   CLOUDY    49  44  83 SE7       29.98F
SHELBYVILLE    CLOUDY    48  46  93 SE7       29.98F
TULLAHOMA      CLOUDY    46  43  87 SE7       29.98F
WINCHESTER     CLOUDY    46  43  87 SE8       29.98F
$$


...KEY TO REMARKS...
VSB - VISIBILITY IN MILES
WCI - WIND CHILL INDEX
HX  - HEAT INDEX



USA.gov is the U.S. government's official web portal to all federal, state and local government web resources and services.